Location: Newark
(41.0400°S, 62.7845°W)
Time: 23:56:53
(UTC+00:00)

Vanguard 2 - Pass Details

Date: 12 December 2021
Orbit: 554 x 2935 km, 32.9° (Epoch: 27 January)

Event Time Altitude Azimuth Distance (km) Brightness Sun altitude
Rises 02:40:35 0° 298° (WNW) 6,033 12.0 -23.0°
Reaches altitude 10° 02:44:17 10° 301° (WNW) 5,255 11.6 -23.2°
Maximum altitude 03:00:26 60° 15° (NNE) 3,243 10.2 -24.2°
Drops below altitude 10° 03:17:06 10° 88° (E) 5,409 11.7 -24.9°
Sets 03:20:58 0° 91° (E) 6,212 12.1 -25.1°
